Gainesville, GA

3:33 AM EST on November 21, 2017 (GMT -0500)
Gilmer Memorial

Weather History for KGVL - October, 2013

Change the Weather History Date:

Thursday, October 31, 2013

  Actual Average Record
Temperature  
Mean Temperature 66 °F 58 °F  
Max Temperature 73 °F 67 °F 84 °F (1950)
Min Temperature 59 °F 48 °F 25 °F (1954)
Degree Days  
Heating Degree Days 0 8  
Month to date heating degree days 125 145  
Since 1 July heating degree days 131 158  
Cooling Degree Days 1 1  
Month to date cooling degree days 57 41  
Year to date cooling degree days 1427 1582  
Growing Degree Days 16 (Base 50)    
Moisture  
Dew Point 55 °F    
Average Humidity 71    
Maximum Humidity 75    
Minimum Humidity 66    
Precipitation  
Precipitation 0.01 in 0.10 in 2.88 in (1977)
Month to date precipitation 2.42 4.08  
Year to date precipitation 45.01  
Snow  
Snow 0.00 in - - ()
Month to date snowfall 0.0  
Since 1 July snowfall 0.0  
Since 1 September snowfall 0.0  
Snow Depth 0.00 in    
Sea Level Pressure  
Sea Level Pressure 30.06 in    
Wind  
Wind Speed 6 mph (SSE)    
Max Wind Speed 14 mph    
Max Gust Speed 29 mph    
Visibility 10 miles    
Events      
T = Trace of Precipitation, MM = Missing Value Source: NWS Daily Summary

Daily Weather History Graph

Daily Weather History Graph

Search for Another Location

Airport or City:

Trip Planner

Search our weather history database for the weather conditions in past years. The results will help you decide how hot, cold, wet, or windy it might be!

Date:

Astronomy

Oct. 31, 2013 Rise Set
Actual Time 7:54 AM EDT 6:42 PM EDT
Civil Twilight 7:28 AM EDT 7:08 PM EDT
Nautical Twilight 6:58 AM EDT 7:38 PM EDT
Astronomical Twilight 6:29 AM EDT 8:07 PM EDT
Moon 4:50 AM EDT (10/31) 4:54 PM EDT (10/31)
Length of Visible Light 11h 40m
Length of Day
10h 48m
Waning Crescent, 10% of the Moon is Illuminated
Oct 31
Waning Crescent
Nov 3
New
Nov 10
First Quarter
Nov 17
Full
Nov 25
Last Quarter

Hourly Weather History & Observations

Time (EDT) Temp. Dew Point Humidity Pressure Visibility Wind Dir Wind Speed Gust Speed Precip Events Conditions
12:53 AM 64.9 °F 53.1 °F 65% 30.17 in 10.0 mi South 4.6 mph - N/A   Clear
1:53 AM 64.0 °F 53.1 °F 67% 30.17 in 10.0 mi South 4.6 mph - N/A   Clear
2:53 AM 63.0 °F 53.1 °F 70% 30.15 in 10.0 mi South 4.6 mph - N/A   Clear
3:53 AM 62.1 °F 53.1 °F 72% 30.14 in 10.0 mi SSE 4.6 mph - N/A   Clear
4:53 AM 61.0 °F 52.0 °F 72% 30.14 in 10.0 mi South 4.6 mph - N/A   Clear
5:53 AM 61.0 °F 52.0 °F 72% 30.14 in 10.0 mi South 4.6 mph - N/A   Clear
6:53 AM 60.1 °F 52.0 °F 75% 30.14 in 10.0 mi SSE 4.6 mph - N/A   Clear
7:53 AM 59.0 °F 51.1 °F 75% 30.14 in 10.0 mi SSE 3.5 mph - N/A   Clear
8:53 AM 59.0 °F 51.1 °F 75% 30.12 in 10.0 mi SE 4.6 mph - N/A   Clear
9:53 AM 60.1 °F 51.1 °F 72% 30.14 in 10.0 mi SSE 5.8 mph - N/A   Scattered Clouds
10:53 AM 63.0 °F 51.1 °F 65% 30.12 in 10.0 mi SSE 6.9 mph - N/A   Mostly Cloudy
11:10 AM 64.4 °F 51.8 °F 64% 30.14 in 10.0 mi SSE 8.1 mph - N/A   Scattered Clouds
11:21 AM 64.4 °F 51.8 °F 64% 30.13 in 10.0 mi South 6.9 mph - N/A   Mostly Cloudy
11:28 AM 64.4 °F 53.6 °F 68% 30.13 in 10.0 mi South 8.1 mph - N/A   Scattered Clouds
11:40 AM 66.2 °F 53.6 °F 64% 30.13 in 10.0 mi South 6.9 mph - N/A   Mostly Cloudy
11:53 AM 66.9 °F 55.0 °F 66% 30.10 in 10.0 mi South 8.1 mph - N/A   Mostly Cloudy
12:02 PM 66.2 °F 55.4 °F 68% 30.12 in 10.0 mi South 11.5 mph - N/A   Partly Cloudy
12:53 PM 70.0 °F 57.9 °F 65% 30.07 in 10.0 mi South 5.8 mph - N/A   Scattered Clouds
1:53 PM 71.1 °F 59.0 °F 66% 30.04 in 10.0 mi South 8.1 mph - N/A   Mostly Cloudy
2:44 PM 71.6 °F 59.0 °F 64% 30.03 in 10.0 mi South 4.6 mph - N/A   Scattered Clouds
2:53 PM 72.0 °F 59.0 °F 64% 30.01 in 10.0 mi South 9.2 mph - N/A   Mostly Cloudy
3:53 PM 72.0 °F 59.0 °F 64% 29.98 in 10.0 mi South 9.2 mph 17.3 mph N/A   Partly Cloudy
4:53 PM 71.1 °F 59.0 °F 66% 29.95 in 10.0 mi South 6.9 mph - N/A   Scattered Clouds
5:53 PM 71.1 °F 59.0 °F 66% 29.93 in 10.0 mi SSE 8.1 mph - N/A   Overcast
6:53 PM 70.0 °F 59.0 °F 68% 29.94 in 10.0 mi SSE 3.5 mph - N/A   Overcast
7:53 PM 69.1 °F 59.0 °F 70% 29.93 in 10.0 mi SE 3.5 mph - N/A   Overcast
8:53 PM 68.0 °F 59.0 °F 73% 29.93 in 10.0 mi SSE 3.5 mph - N/A   Overcast
9:53 PM 68.0 °F 57.9 °F 70% 29.91 in 10.0 mi South 6.9 mph - 0.00 in   Overcast
10:53 PM 69.1 °F 57.9 °F 68% 29.91 in 10.0 mi South 4.6 mph - N/A   Overcast
11:53 PM 69.1 °F 57.9 °F 68% 29.89 in 10.0 mi South 10.4 mph - N/A   Scattered Clouds